TimeEDT,TemperatureF,Dew PointF,Humidity,Sea Level PressureIn,VisibilityMPH,Wind Direction,Wind SpeedMPH,Gust SpeedMPH,PrecipitationIn,Events,Conditions,WindDirDegrees,DateUTC
12:15 AM,73.4,73.4,100,-9999,-9999.0,Calm,Calm,-,N/A,,Unknown,0,2013-08-04 04:15:00
12:35 AM,73.4,73.4,100,-9999,-9999.0,Calm,Calm,-,N/A,,Unknown,0,2013-08-04 04:35:00
12:55 AM,73.4,73.4,100,-9999,-9999.0,Calm,Calm,-,N/A,,Unknown,0,2013-08-04 04:55:00
1:15 AM,73.4,73.4,100,-9999,-9999.0,Calm,Calm,-,N/A,,Unknown,0,2013-08-04 05:15:00
1:35 AM,73.4,73.4,100,-9999,-9999.0,Calm,Calm,-,N/A,,Unknown,0,2013-08-04 05:35:00
1:55 AM,71.6,71.6,100,-9999,-9999.0,Calm,Calm,-,N/A,,Unknown,0,2013-08-04 05:55:00
2:15 AM,71.6,71.6,100,-9999,-9999.0,Calm,Calm,-,N/A,,Unknown,0,2013-08-04 06:15:00
2:35 AM,71.6,71.6,100,-9999,-9999.0,Calm,Calm,-,N/A,,Unknown,0,2013-08-04 06:35:00
2:55 AM,71.6,71.6,100,-9999,-9999.0,Calm,Calm,-,N/A,,Unknown,0,2013-08-04 06:55:00
3:15 AM,71.6,71.6,100,-9999,-9999.0,Calm,Calm,-,N/A,,Unknown,0,2013-08-04 07:15:00
3:35 AM,71.6,71.6,100,-9999,-9999.0,Calm,Calm,-,N/A,,Unknown,0,2013-08-04 07:35:00
3:55 AM,71.6,71.6,100,-9999,-9999.0,Calm,Calm,-,N/A,,Unknown,0,2013-08-04 07:55:00
4:15 AM,71.6,71.6,100,-9999,-9999.0,Calm,Calm,-,N/A,,Unknown,0,2013-08-04 08:15:00
4:35 AM,71.6,71.6,100,-9999,-9999.0,Calm,Calm,-,N/A,,Unknown,0,2013-08-04 08:35:00
4:55 AM,71.6,71.6,100,-9999,-9999.0,Calm,Calm,-,N/A,,Unknown,0,2013-08-04 08:55:00
5:15 AM,71.6,71.6,100,-9999,-9999.0,Calm,Calm,-,N/A,,Unknown,0,2013-08-04 09:15:00
5:35 AM,71.6,71.6,100,-9999,-9999.0,Calm,Calm,-,N/A,,Unknown,0,2013-08-04 09:35:00
5:55 AM,71.6,71.6,100,-9999,-9999.0,Calm,Calm,-,N/A,,Unknown,0,2013-08-04 09:55:00
6:15 AM,71.6,71.6,100,-9999,-9999.0,Calm,Calm,-,N/A,,Unknown,0,2013-08-04 10:15:00
6:35 AM,71.6,71.6,100,-9999,-9999.0,Calm,Calm,-,N/A,,Unknown,0,2013-08-04 10:35:00
6:55 AM,71.6,71.6,100,-9999,-9999.0,Calm,Calm,-,N/A,,Unknown,0,2013-08-04 10:55:00
7:15 AM,71.6,71.6,100,-9999,-9999.0,Calm,Calm,-,N/A,,Unknown,0,2013-08-04 11:15:00
7:35 AM,71.6,71.6,100,-9999,-9999.0,Calm,Calm,-,N/A,,Unknown,0,2013-08-04 11:35:00
7:55 AM,73.4,73.4,100,-9999,-9999.0,Calm,Calm,-,N/A,,Unknown,0,2013-08-04 11:55:00
8:15 AM,73.4,73.4,100,-9999,-9999.0,Calm,Calm,-,N/A,,Unknown,0,2013-08-04 12:15:00
8:35 AM,75.2,75.2,100,-9999,-9999.0,South,3.5,-,N/A,,Unknown,180,2013-08-04 12:35:00
8:55 AM,78.8,78.8,100,-9999,-9999.0,Calm,Calm,-,N/A,,Unknown,0,2013-08-04 12:55:00
9:15 AM,80.6,80.6,100,-9999,-9999.0,Calm,Calm,-,N/A,,Unknown,0,2013-08-04 13:15:00
9:35 AM,82.4,82.4,100,-9999,-9999.0,SSW,3.5,-,N/A,,Unknown,200,2013-08-04 13:35:00
9:55 AM,84.2,82.4,94,-9999,-9999.0,WSW,4.6,-,N/A,,Unknown,240,2013-08-04 13:55:00
10:15 AM,86.0,84.2,94,-9999,-9999.0,SW,5.8,-,N/A,,Unknown,220,2013-08-04 14:15:00
10:35 AM,86.0,82.4,89,-9999,-9999.0,WSW,5.8,-,N/A,,Unknown,240,2013-08-04 14:35:00
10:55 AM,87.8,78.8,75,-9999,-9999.0,SSW,3.5,-,N/A,,Mostly Cloudy,200,2013-08-04 14:55:00
11:15 AM,-9999,-9999,N/A,-9999,-9999.0,WNW,17.3,-,N/A,Thunderstorm,Thunderstorm,300,2013-08-04 15:15:00
11:35 AM,77.0,77.0,100,-9999,-9999.0,Calm,Calm,-,N/A,Thunderstorm,Thunderstorm,0,2013-08-04 15:35:00
11:55 AM,77.0,77.0,100,-9999,-9999.0,Calm,Calm,-,N/A,Thunderstorm,Thunderstorm,0,2013-08-04 15:55:00
12:15 PM,78.8,78.8,100,-9999,-9999.0,South,4.6,-,N/A,,Unknown,170,2013-08-04 16:15:00
12:35 PM,80.6,80.6,100,-9999,-9999.0,SSE,5.8,-,N/A,,Unknown,160,2013-08-04 16:35:00
12:55 PM,82.4,82.4,100,-9999,-9999.0,Calm,Calm,-,N/A,,Unknown,0,2013-08-04 16:55:00
1:15 PM,86.0,80.6,84,-9999,-9999.0,South,4.6,-,N/A,,Clear,170,2013-08-04 17:15:00
1:35 PM,87.8,78.8,75,-9999,-9999.0,Calm,Calm,-,N/A,,Scattered Clouds,0,2013-08-04 17:35:00
1:55 PM,87.8,75.2,66,-9999,-9999.0,West,5.8,-,N/A,,Mostly Cloudy,270,2013-08-04 17:55:00
2:15 PM,86.0,77.0,74,-9999,-9999.0,WNW,9.2,-,N/A,,Scattered Clouds,300,2013-08-04 18:15:00
2:35 PM,82.4,77.0,84,-9999,-9999.0,SW,9.2,-,N/A,Thunderstorm,Thunderstorm,220,2013-08-04 18:35:00
2:55 PM,86.0,73.4,66,-9999,-9999.0,SSW,6.9,-,N/A,Thunderstorm,Thunderstorm,200,2013-08-04 18:55:00
3:15 PM,86.0,77.0,74,-9999,-9999.0,South,8.1,-,N/A,,Clear,190,2013-08-04 19:15:00
3:35 PM,80.6,78.8,94,-9999,-9999.0,WNW,8.1,-,N/A,,Unknown,300,2013-08-04 19:35:00
3:55 PM,80.6,78.8,94,-9999,-9999.0,Calm,Calm,-,N/A,,Unknown,0,2013-08-04 19:55:00
4:15 PM,82.4,82.4,100,-9999,-9999.0,South,4.6,-,N/A,,Unknown,180,2013-08-04 20:15:00
4:35 PM,82.4,82.4,100,-9999,-9999.0,SSE,6.9,-,N/A,,Unknown,160,2013-08-04 20:35:00
4:55 PM,80.6,80.6,100,-9999,-9999.0,SSE,4.6,-,N/A,,Unknown,160,2013-08-04 20:55:00
5:15 PM,80.6,80.6,100,-9999,-9999.0,Calm,Calm,-,N/A,,Unknown,0,2013-08-04 21:15:00
5:35 PM,80.6,80.6,100,-9999,-9999.0,SSW,3.5,-,N/A,,Unknown,200,2013-08-04 21:35:00
5:55 PM,82.4,78.8,89,-9999,-9999.0,Calm,Calm,-,N/A,,Unknown,0,2013-08-04 21:55:00
6:15 PM,82.4,80.6,94,-9999,-9999.0,SSE,3.5,-,N/A,,Unknown,160,2013-08-04 22:15:00
6:35 PM,82.4,80.6,94,-9999,-9999.0,SSE,3.5,-,N/A,,Unknown,160,2013-08-04 22:35:00
6:55 PM,82.4,80.6,94,-9999,-9999.0,SSE,3.5,-,N/A,,Unknown,160,2013-08-04 22:55:00
7:15 PM,82.4,80.6,94,-9999,-9999.0,South,4.6,-,N/A,,Unknown,170,2013-08-04 23:15:00
7:35 PM,82.4,80.6,94,-9999,-9999.0,SSW,3.5,-,N/A,,Unknown,200,2013-08-04 23:35:00
7:55 PM,80.6,80.6,100,-9999,-9999.0,SW,3.5,-,N/A,,Unknown,220,2013-08-04 23:55:00
8:15 PM,80.6,80.6,100,-9999,-9999.0,Calm,Calm,-,N/A,,Unknown,0,2013-08-05 00:15:00
8:35 PM,80.6,80.6,100,-9999,-9999.0,SSW,4.6,-,N/A,,Unknown,200,2013-08-05 00:35:00
8:55 PM,78.8,78.8,100,-9999,-9999.0,SSW,5.8,-,N/A,,Unknown,200,2013-08-05 00:55:00
9:15 PM,78.8,78.8,100,-9999,-9999.0,SW,4.6,-,N/A,,Unknown,220,2013-08-05 01:15:00
9:35 PM,78.8,78.8,100,-9999,-9999.0,SW,4.6,-,N/A,,Unknown,220,2013-08-05 01:35:00
9:55 PM,78.8,78.8,100,-9999,-9999.0,Calm,Calm,-,N/A,,Unknown,0,2013-08-05 01:55:00
10:15 PM,77.0,77.0,100,-9999,-9999.0,SW,4.6,-,N/A,,Unknown,220,2013-08-05 02:15:00
10:35 PM,77.0,77.0,100,-9999,-9999.0,Calm,Calm,-,N/A,,Unknown,0,2013-08-05 02:35:00
10:55 PM,77.0,77.0,100,-9999,-9999.0,Calm,Calm,-,0.01,,Unknown,0,2013-08-05 02:55:00
11:15 PM,77.0,77.0,100,-9999,-9999.0,Calm,Calm,-,N/A,,Unknown,0,2013-08-05 03:15:00
11:35 PM,77.0,77.0,100,-9999,-9999.0,SW,3.5,-,N/A,,Unknown,220,2013-08-05 03:35:00
11:55 PM,77.0,77.0,100,-9999,-9999.0,Calm,Calm,-,N/A,,Unknown,0,2013-08-05 03:55:00